TURKMENALEM52E/MONACOSAT

Last updated on Mon Sep 21 2026 00:02:59 GMT+0000 (Coordinated Universal Time)

1 40617U 15023A 26263.57276171 .00000100 00000+0 00000+0 0 9993 2 40617 0.0133 118.3769 0003036 55.3030 84.0168 1.00270916 41806
UTC large
Height (km)
Speed (km/s)
/
Latitude / Longitude
Inclination (degrees)
Orbital Period (minutes)
Azimuth
Elevation
Range (km)
Doppler Factor

Next 0 passes for location: London (51.5072 / 0.1276)

No passes found over London.
TURKMENALEM52E/MONACOSAT